Year,Month,Day,Hour,Minute,Value (Times are PST for temperature in C)
2013,06,16,00,00,16.60
2013,06,16,00,01,16.60
2013,06,16,00,02,16.50
2013,06,16,00,03,16.50
2013,06,16,00,04,16.50
2013,06,16,00,05,16.50
2013,06,16,00,06,16.60
2013,06,16,00,07,16.60
2013,06,16,00,08,16.60
2013,06,16,00,09,16.60
2013,06,16,00,10,16.60
2013,06,16,00,11,16.50
2013,06,16,00,12,16.50
2013,06,16,00,13,16.40
2013,06,16,00,14,16.40
2013,06,16,00,15,16.40
2013,06,16,00,16,16.30
2013,06,16,00,17,16.30
2013,06,16,00,18,16.30
2013,06,16,00,19,16.40
2013,06,16,00,20,16.40
2013,06,16,00,21,16.50
2013,06,16,00,22,16.60
2013,06,16,00,23,16.70
2013,06,16,00,24,16.80
2013,06,16,00,25,16.90
2013,06,16,00,26,17.00
2013,06,16,00,27,17.00
2013,06,16,00,28,17.10
2013,06,16,00,29,17.10
2013,06,16,00,30,17.10
2013,06,16,00,31,17.10
2013,06,16,00,32,17.20
2013,06,16,00,33,17.20
2013,06,16,00,34,17.20
2013,06,16,00,35,17.20
2013,06,16,00,36,17.20
2013,06,16,00,37,17.20
2013,06,16,00,38,17.20
2013,06,16,00,39,17.20
2013,06,16,00,40,17.10
2013,06,16,00,41,17.10
2013,06,16,00,42,17.00
2013,06,16,00,43,17.00
2013,06,16,00,44,16.90
2013,06,16,00,45,16.90
2013,06,16,00,46,16.90
2013,06,16,00,47,16.80
2013,06,16,00,48,16.80
2013,06,16,00,49,16.80
2013,06,16,00,50,16.70
2013,06,16,00,51,16.70
2013,06,16,00,52,16.70
2013,06,16,00,53,16.70
2013,06,16,00,54,16.70
2013,06,16,00,55,16.60
2013,06,16,00,56,16.60
2013,06,16,00,57,16.60
2013,06,16,00,58,16.60
2013,06,16,00,59,16.60
2013,06,16,01,00,16.60
2013,06,16,01,01,16.70
2013,06,16,01,02,16.70
2013,06,16,01,03,16.60
2013,06,16,01,04,16.50
2013,06,16,01,05,16.40
2013,06,16,01,06,16.30
2013,06,16,01,07,16.30
2013,06,16,01,08,16.20
2013,06,16,01,09,16.10
2013,06,16,01,10,16.00
2013,06,16,01,11,15.90
2013,06,16,01,12,15.80
2013,06,16,01,13,15.70
2013,06,16,01,14,15.70
2013,06,16,01,15,15.60
2013,06,16,01,16,15.60
2013,06,16,01,17,15.60
2013,06,16,01,18,15.60
2013,06,16,01,19,15.50
2013,06,16,01,20,15.50
2013,06,16,01,21,15.50
2013,06,16,01,22,15.60
2013,06,16,01,23,15.60
2013,06,16,01,24,15.60
2013,06,16,01,25,15.60
2013,06,16,01,26,15.60
2013,06,16,01,27,15.70
2013,06,16,01,28,15.70
2013,06,16,01,29,15.70
2013,06,16,01,30,15.70
2013,06,16,01,31,15.80
2013,06,16,01,32,15.80
2013,06,16,01,33,15.80
2013,06,16,01,34,15.80
2013,06,16,01,35,15.80
2013,06,16,01,36,15.70
2013,06,16,01,37,15.60
2013,06,16,01,38,15.50
2013,06,16,01,39,15.40
2013,06,16,01,40,15.40
2013,06,16,01,41,15.30
2013,06,16,01,42,15.30
2013,06,16,01,43,15.30
2013,06,16,01,44,15.30
2013,06,16,01,45,15.30
2013,06,16,01,46,15.40
2013,06,16,01,47,15.40
2013,06,16,01,48,15.40
2013,06,16,01,49,15.40
2013,06,16,01,50,15.30
2013,06,16,01,51,15.30
2013,06,16,01,52,15.30
2013,06,16,01,53,15.30
2013,06,16,01,54,15.40
2013,06,16,01,55,15.40
2013,06,16,01,56,15.50
2013,06,16,01,57,15.60
2013,06,16,01,58,15.70
2013,06,16,01,59,15.80
2013,06,16,02,00,15.90
2013,06,16,02,01,15.90
2013,06,16,02,02,15.90
2013,06,16,02,03,15.90
2013,06,16,02,04,15.90
2013,06,16,02,05,15.90
2013,06,16,02,06,15.90
2013,06,16,02,07,16.00
2013,06,16,02,08,16.00
2013,06,16,02,09,16.00
2013,06,16,02,10,16.10
2013,06,16,02,11,16.10
2013,06,16,02,12,16.20
2013,06,16,02,13,16.20
2013,06,16,02,14,16.30
2013,06,16,02,15,16.40
2013,06,16,02,16,16.40
2013,06,16,02,17,16.50
2013,06,16,02,18,16.60
2013,06,16,02,19,16.60
2013,06,16,02,20,16.60
2013,06,16,02,21,16.60
2013,06,16,02,22,16.60
2013,06,16,02,23,16.60
2013,06,16,02,24,16.60
2013,06,16,02,25,16.60
2013,06,16,02,26,16.60
2013,06,16,02,27,16.50
2013,06,16,02,28,16.50
2013,06,16,02,29,16.40
2013,06,16,02,30,16.40
2013,06,16,02,31,16.30
2013,06,16,02,32,16.30
2013,06,16,02,33,16.30
2013,06,16,02,34,16.30
2013,06,16,02,35,16.30
2013,06,16,02,36,16.30
2013,06,16,02,37,16.30
2013,06,16,02,38,16.40
2013,06,16,02,39,16.40
2013,06,16,02,40,16.40
2013,06,16,02,41,16.40
2013,06,16,02,42,16.30
2013,06,16,02,43,16.30
2013,06,16,02,44,16.30
2013,06,16,02,45,16.30
2013,06,16,02,46,16.20
2013,06,16,02,47,16.20
2013,06,16,02,48,16.20
2013,06,16,02,49,16.20
2013,06,16,02,50,16.20
2013,06,16,02,51,16.10
2013,06,16,02,52,16.20
2013,06,16,02,53,16.10
2013,06,16,02,54,16.20
2013,06,16,02,55,16.20
2013,06,16,02,56,16.20
2013,06,16,02,57,16.30
2013,06,16,02,58,16.30
2013,06,16,02,59,16.30
2013,06,16,03,00,16.20
2013,06,16,03,01,16.20
2013,06,16,03,02,16.20
2013,06,16,03,06,16.00
2013,06,16,03,07,16.00
2013,06,16,03,08,15.90
2013,06,16,03,09,15.90
2013,06,16,03,10,15.80
2013,06,16,03,11,15.80
2013,06,16,03,12,15.80
2013,06,16,03,13,15.70
2013,06,16,03,14,15.70
2013,06,16,03,15,15.70
2013,06,16,03,16,15.70
2013,06,16,03,17,15.60
2013,06,16,03,18,15.60
2013,06,16,03,19,15.50
2013,06,16,03,20,15.40
2013,06,16,03,21,15.30
2013,06,16,03,22,15.30
2013,06,16,03,23,15.20
2013,06,16,03,24,15.20
2013,06,16,03,25,15.20
2013,06,16,03,26,15.20
2013,06,16,03,27,15.10
2013,06,16,03,28,15.10
2013,06,16,03,29,15.10
2013,06,16,03,30,15.10
2013,06,16,03,31,15.10
2013,06,16,03,32,15.10
2013,06,16,03,33,15.00
2013,06,16,03,34,15.00
2013,06,16,03,35,15.00
2013,06,16,03,36,15.00
2013,06,16,03,37,15.00
2013,06,16,03,38,15.00
2013,06,16,03,39,15.00
2013,06,16,03,40,15.00
2013,06,16,03,41,15.00
2013,06,16,03,42,15.00
2013,06,16,03,43,14.90
2013,06,16,03,44,14.80
2013,06,16,03,45,14.80
2013,06,16,03,46,14.80
2013,06,16,03,47,14.80
2013,06,16,03,48,14.80
2013,06,16,03,49,14.90
2013,06,16,03,50,14.90
2013,06,16,03,51,14.90
2013,06,16,03,52,14.90
2013,06,16,03,53,15.00
2013,06,16,03,54,15.00
2013,06,16,03,55,15.00
2013,06,16,03,56,14.90
2013,06,16,03,57,14.90
2013,06,16,03,58,14.90
2013,06,16,03,59,14.80
2013,06,16,04,00,14.80
2013,06,16,04,01,14.70
2013,06,16,04,02,14.60
2013,06,16,04,03,14.60
2013,06,16,04,04,14.50
2013,06,16,04,05,14.40
2013,06,16,04,06,14.40
2013,06,16,04,07,14.40
2013,06,16,04,08,14.40
2013,06,16,04,09,14.40
2013,06,16,04,10,14.40
2013,06,16,04,11,14.40
2013,06,16,04,12,14.40
2013,06,16,04,13,14.40
2013,06,16,04,14,14.40
2013,06,16,04,15,14.30
2013,06,16,04,16,14.30
2013,06,16,04,17,14.30
2013,06,16,04,18,14.30
2013,06,16,04,19,14.30
2013,06,16,04,20,14.30
2013,06,16,04,21,14.30
2013,06,16,04,22,14.30
2013,06,16,04,23,14.20
2013,06,16,04,24,14.20
2013,06,16,04,25,14.20
2013,06,16,04,26,14.10
2013,06,16,04,27,14.00
2013,06,16,04,28,13.90
2013,06,16,04,29,13.90
2013,06,16,04,30,13.90
2013,06,16,04,31,13.90
2013,06,16,04,32,13.90
2013,06,16,04,33,13.90
2013,06,16,04,34,14.00
2013,06,16,04,35,14.00
2013,06,16,04,36,14.00
2013,06,16,04,37,14.00
2013,06,16,04,38,14.00
2013,06,16,04,39,14.00
2013,06,16,04,40,14.00
2013,06,16,04,41,14.00
2013,06,16,04,42,13.90
2013,06,16,04,43,13.90
2013,06,16,04,44,13.90
2013,06,16,04,45,13.80
2013,06,16,04,46,13.80
2013,06,16,04,47,13.80
2013,06,16,04,48,13.80
2013,06,16,04,49,13.90
2013,06,16,04,50,13.90
2013,06,16,04,51,14.00
2013,06,16,04,52,14.00
2013,06,16,04,53,14.10
2013,06,16,04,54,14.10
2013,06,16,04,55,14.20
2013,06,16,04,56,14.20
2013,06,16,04,57,14.20
2013,06,16,04,58,14.20
2013,06,16,04,59,14.20
2013,06,16,05,00,14.20
2013,06,16,05,01,14.30
2013,06,16,05,02,14.30
2013,06,16,05,03,14.40
2013,06,16,05,04,14.40
2013,06,16,05,05,14.40
2013,06,16,05,06,14.50
2013,06,16,05,07,14.50
2013,06,16,05,08,14.50
2013,06,16,05,09,14.50
2013,06,16,05,10,14.50
2013,06,16,05,11,14.60
2013,06,16,05,12,14.60
2013,06,16,05,13,14.60
2013,06,16,05,14,14.60
2013,06,16,05,15,14.70
2013,06,16,05,16,14.70
2013,06,16,05,17,14.70
2013,06,16,05,18,14.70
2013,06,16,05,19,14.70
2013,06,16,05,20,14.70
2013,06,16,05,21,14.70
2013,06,16,05,22,14.70
2013,06,16,05,23,14.70
2013,06,16,05,24,14.70
2013,06,16,05,25,14.70
2013,06,16,05,26,14.70
2013,06,16,05,27,14.70
2013,06,16,05,28,14.60
2013,06,16,05,29,14.60
2013,06,16,05,30,14.60
2013,06,16,05,31,14.60
2013,06,16,05,32,14.60
2013,06,16,05,33,14.60
2013,06,16,05,34,14.50
2013,06,16,05,35,14.50
2013,06,16,05,36,14.50
2013,06,16,05,37,14.40
2013,06,16,05,38,14.40
2013,06,16,05,39,14.40
2013,06,16,05,40,14.30
2013,06,16,05,41,14.30
2013,06,16,05,42,14.30
2013,06,16,05,43,14.20
2013,06,16,05,44,14.20
2013,06,16,05,45,14.20
2013,06,16,05,46,14.10
2013,06,16,05,47,14.10
2013,06,16,05,48,14.20
2013,06,16,05,49,14.20
2013,06,16,05,50,14.20
2013,06,16,05,51,14.20
2013,06,16,05,52,14.20
2013,06,16,05,53,14.20
2013,06,16,05,54,14.20
2013,06,16,05,55,14.20
2013,06,16,05,56,14.20
2013,06,16,05,57,14.20
2013,06,16,05,58,14.20
2013,06,16,05,59,14.20
2013,06,16,06,00,14.20
2013,06,16,06,01,14.20
2013,06,16,06,02,14.20
2013,06,16,06,03,14.30
2013,06,16,06,04,14.30
2013,06,16,06,05,14.30
2013,06,16,06,06,14.30
2013,06,16,06,07,14.30
2013,06,16,06,08,14.30
2013,06,16,06,09,14.40
2013,06,16,06,10,14.40
2013,06,16,06,11,14.40
2013,06,16,06,12,14.50
2013,06,16,06,13,14.50
2013,06,16,06,14,14.60
2013,06,16,06,15,14.60
2013,06,16,06,16,14.70
2013,06,16,06,17,14.70
2013,06,16,06,18,14.70
2013,06,16,06,19,14.80
2013,06,16,06,20,14.80
2013,06,16,06,21,14.80
2013,06,16,06,22,14.80
2013,06,16,06,23,14.90
2013,06,16,06,24,14.90
2013,06,16,06,25,14.90
2013,06,16,06,26,14.90
2013,06,16,06,27,14.90
2013,06,16,06,28,14.90
2013,06,16,06,29,14.90
2013,06,16,06,30,14.90
2013,06,16,06,31,14.90
2013,06,16,06,32,14.90
2013,06,16,06,33,14.90
2013,06,16,06,34,14.80
2013,06,16,06,35,14.80
2013,06,16,06,36,14.80
2013,06,16,06,37,14.80
2013,06,16,06,38,14.70
2013,06,16,06,39,14.60
2013,06,16,06,40,14.60
2013,06,16,06,41,14.50
2013,06,16,06,42,14.50
2013,06,16,06,43,14.40
2013,06,16,06,44,14.30
2013,06,16,06,45,14.30
2013,06,16,06,46,14.20
2013,06,16,06,47,14.20
2013,06,16,06,48,14.20
2013,06,16,06,49,14.20
2013,06,16,06,50,14.20
2013,06,16,06,51,14.20
2013,06,16,06,52,14.20
2013,06,16,06,53,14.20
2013,06,16,06,54,14.20
2013,06,16,06,55,14.20
2013,06,16,06,56,14.20
2013,06,16,06,57,14.20
2013,06,16,06,58,14.20
2013,06,16,06,59,14.20
2013,06,16,07,00,14.20
2013,06,16,07,01,14.20
2013,06,16,07,02,14.20
2013,06,16,07,03,14.20
2013,06,16,07,04,14.20
2013,06,16,07,05,14.30
2013,06,16,07,06,14.30
2013,06,16,07,07,14.30
2013,06,16,07,08,14.30
2013,06,16,07,09,14.30
2013,06,16,07,10,14.30
2013,06,16,07,11,14.40
2013,06,16,07,12,14.40
2013,06,16,07,13,14.40
2013,06,16,07,14,14.50
2013,06,16,07,15,14.50
2013,06,16,07,16,14.60
2013,06,16,07,17,14.70
2013,06,16,07,18,14.80
2013,06,16,07,19,14.80
2013,06,16,07,20,14.90
2013,06,16,07,21,15.00
2013,06,16,07,22,15.00
2013,06,16,07,23,15.00
2013,06,16,07,24,15.00
2013,06,16,07,25,15.00
2013,06,16,07,26,15.00
2013,06,16,07,27,15.10
2013,06,16,07,28,15.20
2013,06,16,07,29,15.20
2013,06,16,07,30,15.20
2013,06,16,07,31,15.30
2013,06,16,07,32,15.30
2013,06,16,07,33,15.40
2013,06,16,07,34,15.40
2013,06,16,07,35,15.50
2013,06,16,07,36,15.50
2013,06,16,07,37,15.60
2013,06,16,07,38,15.60
2013,06,16,07,39,15.60
2013,06,16,07,40,15.70
2013,06,16,07,41,15.70
2013,06,16,07,42,15.70
2013,06,16,07,43,15.80
2013,06,16,07,44,15.90
2013,06,16,07,45,16.00
2013,06,16,07,46,16.00
2013,06,16,07,47,16.10
2013,06,16,07,48,16.20
2013,06,16,07,49,16.20
2013,06,16,07,50,16.30
2013,06,16,07,51,16.40
2013,06,16,07,52,16.50
2013,06,16,07,53,16.50
2013,06,16,07,54,16.60
2013,06,16,07,55,16.70
2013,06,16,07,56,16.70
2013,06,16,07,57,16.80
2013,06,16,07,58,16.80
2013,06,16,07,59,16.90
2013,06,16,08,00,16.90
2013,06,16,08,01,17.00
2013,06,16,08,02,17.10
2013,06,16,08,03,17.20
2013,06,16,08,04,17.30
2013,06,16,08,05,17.40
2013,06,16,08,06,17.60
2013,06,16,08,07,17.70
2013,06,16,08,08,17.80
2013,06,16,08,09,17.90
2013,06,16,08,10,17.90
2013,06,16,08,11,18.00
2013,06,16,08,12,18.10
2013,06,16,08,13,18.10
2013,06,16,08,14,18.10
2013,06,16,08,15,18.10
2013,06,16,08,16,18.10
2013,06,16,08,17,18.10
2013,06,16,08,18,18.10
2013,06,16,08,19,18.10
2013,06,16,08,20,18.10
2013,06,16,08,21,18.20
2013,06,16,08,22,18.20
2013,06,16,08,23,18.30
2013,06,16,08,24,18.30
2013,06,16,08,25,18.40
2013,06,16,08,26,18.50
2013,06,16,08,27,18.60
2013,06,16,08,28,18.70
2013,06,16,08,29,18.70
2013,06,16,08,30,18.80
2013,06,16,08,31,18.80
2013,06,16,08,32,18.80
2013,06,16,08,33,18.80
2013,06,16,08,34,18.90
2013,06,16,08,35,18.90
2013,06,16,08,36,18.90
2013,06,16,08,37,19.00
2013,06,16,08,38,19.10
2013,06,16,08,39,19.10
2013,06,16,08,40,19.20
2013,06,16,08,41,19.20
2013,06,16,08,42,19.30
2013,06,16,08,43,19.40
2013,06,16,08,44,19.40
2013,06,16,08,45,19.40
2013,06,16,08,46,19.40
2013,06,16,08,47,19.40
2013,06,16,08,48,19.40
2013,06,16,08,49,19.50
2013,06,16,08,50,19.60
2013,06,16,08,51,19.60
2013,06,16,08,52,19.60
2013,06,16,08,53,19.70
2013,06,16,08,54,19.70
2013,06,16,08,55,19.70
2013,06,16,08,56,19.70
2013,06,16,08,57,19.70
2013,06,16,08,58,19.70
2013,06,16,08,59,19.70
2013,06,16,09,00,19.80
2013,06,16,09,01,19.80
2013,06,16,09,02,19.80
2013,06,16,09,03,19.80
2013,06,16,09,04,19.90
2013,06,16,09,05,19.90
2013,06,16,09,06,20.00
2013,06,16,09,07,20.00
2013,06,16,09,08,20.10
2013,06,16,09,09,20.10
2013,06,16,09,10,20.20
2013,06,16,09,11,20.20
2013,06,16,09,12,20.30
2013,06,16,09,13,20.30
2013,06,16,09,14,20.30
2013,06,16,09,15,20.40
2013,06,16,09,16,20.30
2013,06,16,09,17,20.30
2013,06,16,09,18,20.20
2013,06,16,09,19,20.20
2013,06,16,09,20,20.10
2013,06,16,09,21,20.10
2013,06,16,09,22,20.10
2013,06,16,09,23,20.10
2013,06,16,09,24,20.10
2013,06,16,09,25,20.10
2013,06,16,09,26,20.10
2013,06,16,09,27,20.10
2013,06,16,09,28,20.10
2013,06,16,09,29,20.10
2013,06,16,09,30,20.20
2013,06,16,09,31,20.20
2013,06,16,09,32,20.20
2013,06,16,09,33,20.30
2013,06,16,09,34,20.40
2013,06,16,09,35,20.40
2013,06,16,09,36,20.50
2013,06,16,09,37,20.60
2013,06,16,09,38,20.70
2013,06,16,09,39,20.80
2013,06,16,09,40,20.90
2013,06,16,09,41,21.00
2013,06,16,09,42,21.10
2013,06,16,09,43,21.10
2013,06,16,09,44,21.20
2013,06,16,09,45,21.30
2013,06,16,09,46,21.40
2013,06,16,09,47,21.40
2013,06,16,09,48,21.50
2013,06,16,09,49,21.50
2013,06,16,09,50,21.40
2013,06,16,09,51,21.40
2013,06,16,09,52,21.40
2013,06,16,09,53,21.30
2013,06,16,09,54,21.30
2013,06,16,09,55,21.30
2013,06,16,09,56,21.20
2013,06,16,09,57,21.20
2013,06,16,09,58,21.20
2013,06,16,09,59,21.20
2013,06,16,10,00,21.20
2013,06,16,10,01,21.30
2013,06,16,10,02,21.30
2013,06,16,10,03,21.40
2013,06,16,10,04,21.40
2013,06,16,10,05,21.40
2013,06,16,10,06,21.40
2013,06,16,10,07,21.30
2013,06,16,10,08,21.30
2013,06,16,10,09,21.30
2013,06,16,10,10,21.30
2013,06,16,10,11,21.30
2013,06,16,10,12,21.30
2013,06,16,10,13,21.40
2013,06,16,10,14,21.40
2013,06,16,10,15,21.30
2013,06,16,10,16,21.20
2013,06,16,10,17,21.20
2013,06,16,10,18,21.20
2013,06,16,10,19,21.20
2013,06,16,10,20,21.20
2013,06,16,10,21,21.30
2013,06,16,10,22,21.30
2013,06,16,10,23,21.40
2013,06,16,10,24,21.30
2013,06,16,10,25,21.30
2013,06,16,10,26,21.20
2013,06,16,10,27,21.20
2013,06,16,10,28,21.10
2013,06,16,10,29,21.00
2013,06,16,10,30,20.80
2013,06,16,10,31,20.70
2013,06,16,10,32,20.70
2013,06,16,10,33,20.80
2013,06,16,10,34,20.80
2013,06,16,10,35,20.90
2013,06,16,10,36,20.90
2013,06,16,10,37,21.00
2013,06,16,10,38,21.10
2013,06,16,10,39,21.10
2013,06,16,10,40,21.20
2013,06,16,10,41,21.30
2013,06,16,10,42,21.40
2013,06,16,10,43,21.50
2013,06,16,10,44,21.50
2013,06,16,10,45,21.60
2013,06,16,10,46,21.80
2013,06,16,10,47,21.80
2013,06,16,10,48,21.90
2013,06,16,10,49,22.00
2013,06,16,10,50,22.10
2013,06,16,10,51,22.20
2013,06,16,10,52,22.30
2013,06,16,10,53,22.40
2013,06,16,10,54,22.40
2013,06,16,10,55,22.40
2013,06,16,10,56,22.30
2013,06,16,10,57,22.30
2013,06,16,10,58,22.20
2013,06,16,10,59,22.10
2013,06,16,11,00,22.00
2013,06,16,11,01,21.90
2013,06,16,11,02,21.80
2013,06,16,11,03,21.80
2013,06,16,11,04,21.70
2013,06,16,11,05,21.70
2013,06,16,11,06,21.50
2013,06,16,11,07,21.40
2013,06,16,11,08,21.20
2013,06,16,11,09,21.10
2013,06,16,11,10,21.10
2013,06,16,11,11,21.10
2013,06,16,11,12,21.10
2013,06,16,11,13,21.00
2013,06,16,11,14,21.00
2013,06,16,11,15,20.90
2013,06,16,11,16,20.90
2013,06,16,11,17,21.00
2013,06,16,11,18,21.10
2013,06,16,11,19,21.20
2013,06,16,11,20,21.30
2013,06,16,11,21,21.40
2013,06,16,11,22,21.60
2013,06,16,11,23,21.70
2013,06,16,11,24,21.80
2013,06,16,11,25,21.80
2013,06,16,11,26,21.80
2013,06,16,11,27,21.90
2013,06,16,11,28,21.90
2013,06,16,11,29,21.80
2013,06,16,11,30,21.80
2013,06,16,11,31,21.80
2013,06,16,11,32,21.80
2013,06,16,11,33,21.80
2013,06,16,11,34,21.90
2013,06,16,11,35,22.00
2013,06,16,11,36,22.00
2013,06,16,11,37,22.00
2013,06,16,11,38,21.90
2013,06,16,11,39,21.80
2013,06,16,11,40,21.80
2013,06,16,11,41,21.70
2013,06,16,11,42,21.60
2013,06,16,11,43,21.50
2013,06,16,11,44,21.40
2013,06,16,11,45,21.40
2013,06,16,11,46,21.40
2013,06,16,11,47,21.30
2013,06,16,11,48,21.20
2013,06,16,11,49,21.20
2013,06,16,11,50,21.20
2013,06,16,11,51,21.30
2013,06,16,11,52,21.30
2013,06,16,11,53,21.30
2013,06,16,11,54,21.30
2013,06,16,11,55,21.20
2013,06,16,11,56,21.20
2013,06,16,11,57,21.20
2013,06,16,11,58,21.20
2013,06,16,11,59,21.10
2013,06,16,12,00,21.10
2013,06,16,12,01,21.10
2013,06,16,12,02,21.00
2013,06,16,12,03,21.00
2013,06,16,12,04,21.00
2013,06,16,12,05,21.00
2013,06,16,12,06,21.00
2013,06,16,12,07,21.10
2013,06,16,12,08,21.20
2013,06,16,12,09,21.30
2013,06,16,12,10,21.40
2013,06,16,12,11,21.40
2013,06,16,12,12,21.50
2013,06,16,12,13,21.50
2013,06,16,12,14,21.60
2013,06,16,12,15,21.50
2013,06,16,12,16,21.30
2013,06,16,12,17,21.20
2013,06,16,12,18,21.20
2013,06,16,12,19,21.10
2013,06,16,12,20,21.10
2013,06,16,12,21,21.00
2013,06,16,12,22,21.00
2013,06,16,12,23,20.90
2013,06,16,12,24,21.00
2013,06,16,12,25,21.00
2013,06,16,12,26,21.10
2013,06,16,12,27,21.10
2013,06,16,12,28,21.10
2013,06,16,12,29,21.10
2013,06,16,12,30,21.20
2013,06,16,12,31,21.30
2013,06,16,12,32,21.30
2013,06,16,12,33,21.40
2013,06,16,12,34,21.50
2013,06,16,12,35,21.60
2013,06,16,12,36,21.70
2013,06,16,12,37,21.70
2013,06,16,12,38,21.70
2013,06,16,12,39,21.70
2013,06,16,12,40,21.80
2013,06,16,12,41,21.90
2013,06,16,12,42,22.00
2013,06,16,12,43,22.00
2013,06,16,12,44,22.10
2013,06,16,12,45,22.20
2013,06,16,12,46,22.40
2013,06,16,12,47,22.50
2013,06,16,12,48,22.70
2013,06,16,12,49,22.80
2013,06,16,12,50,22.70
2013,06,16,12,51,22.60
2013,06,16,12,52,22.60
2013,06,16,12,53,22.50
2013,06,16,12,54,22.40
2013,06,16,12,55,22.30
2013,06,16,12,56,22.30
2013,06,16,12,57,22.20
2013,06,16,12,58,22.20
2013,06,16,12,59,22.20
2013,06,16,13,00,22.30
2013,06,16,13,01,22.40
2013,06,16,13,02,22.40
2013,06,16,13,03,22.40
2013,06,16,13,04,22.30
2013,06,16,13,05,22.30
2013,06,16,13,06,22.30
2013,06,16,13,07,22.20
2013,06,16,13,08,22.20
2013,06,16,13,09,22.20
2013,06,16,13,10,22.10
2013,06,16,13,11,22.10
2013,06,16,13,12,22.00
2013,06,16,13,13,21.90
2013,06,16,13,14,21.80
2013,06,16,13,15,21.80
2013,06,16,13,16,21.70
2013,06,16,13,17,21.70
2013,06,16,13,18,21.60
2013,06,16,13,19,21.60
2013,06,16,13,20,21.60
2013,06,16,13,21,21.60
2013,06,16,13,22,21.60
2013,06,16,13,23,21.60
2013,06,16,13,24,21.60
2013,06,16,13,25,21.50
2013,06,16,13,26,21.50
2013,06,16,13,27,21.40
2013,06,16,13,28,21.40
2013,06,16,13,29,21.40
2013,06,16,13,30,21.30
2013,06,16,13,31,21.30
2013,06,16,13,32,21.30
2013,06,16,13,33,21.30
2013,06,16,13,34,21.30
2013,06,16,13,35,21.30
2013,06,16,13,36,21.20
2013,06,16,13,37,21.30
2013,06,16,13,38,21.20
2013,06,16,13,39,21.30
2013,06,16,13,40,21.40
2013,06,16,13,41,21.50
2013,06,16,13,42,21.70
2013,06,16,13,43,21.80
2013,06,16,13,44,21.80
2013,06,16,13,45,21.90
2013,06,16,13,46,21.90
2013,06,16,13,47,22.00
2013,06,16,13,48,22.10
2013,06,16,13,49,22.10
2013,06,16,13,50,22.20
2013,06,16,13,51,22.30
2013,06,16,13,52,22.30
2013,06,16,13,53,22.30
2013,06,16,13,54,22.20
2013,06,16,13,55,22.20
2013,06,16,13,56,22.20
2013,06,16,13,57,22.30
2013,06,16,13,58,22.20
2013,06,16,13,59,22.20
2013,06,16,14,00,22.10
2013,06,16,14,01,22.10
2013,06,16,14,02,22.10
2013,06,16,14,03,22.10
2013,06,16,14,04,22.10
2013,06,16,14,05,22.00
2013,06,16,14,06,21.80
2013,06,16,14,07,21.60
2013,06,16,14,08,21.50
2013,06,16,14,09,21.30
2013,06,16,14,10,21.20
2013,06,16,14,11,21.10
2013,06,16,14,12,21.10
2013,06,16,14,13,21.20
2013,06,16,14,14,21.20
2013,06,16,14,15,21.20
2013,06,16,14,16,21.10
2013,06,16,14,17,21.10
2013,06,16,14,18,21.10
2013,06,16,14,19,21.00
2013,06,16,14,20,20.90
2013,06,16,14,21,20.80
2013,06,16,14,22,20.80
2013,06,16,14,23,20.70
2013,06,16,14,24,20.60
2013,06,16,14,25,20.60
2013,06,16,14,26,20.60
2013,06,16,14,27,20.50
2013,06,16,14,28,20.50
2013,06,16,14,29,20.40
2013,06,16,14,30,20.40
2013,06,16,14,31,20.40
2013,06,16,14,32,20.40
2013,06,16,14,33,20.20
2013,06,16,14,34,20.10
2013,06,16,14,35,20.00
2013,06,16,14,36,19.90
2013,06,16,14,37,19.80
2013,06,16,14,38,19.60
2013,06,16,14,39,19.40
2013,06,16,14,40,19.10
2013,06,16,14,41,18.90
2013,06,16,14,42,18.70
2013,06,16,14,43,18.60
2013,06,16,14,44,18.50
2013,06,16,14,45,18.50
2013,06,16,14,46,18.40
2013,06,16,14,47,18.30
2013,06,16,14,48,18.30
2013,06,16,14,49,18.30
2013,06,16,14,50,18.30
2013,06,16,14,51,18.30
2013,06,16,14,52,18.40
2013,06,16,14,53,18.40
2013,06,16,14,54,18.50
2013,06,16,14,55,18.60
2013,06,16,14,56,18.70
2013,06,16,14,57,18.80
2013,06,16,14,58,18.90
2013,06,16,14,59,18.90
2013,06,16,15,00,19.00
2013,06,16,15,01,19.00
2013,06,16,15,02,19.10
2013,06,16,15,03,19.20
2013,06,16,15,04,19.30
2013,06,16,15,05,19.40
2013,06,16,15,06,19.60
2013,06,16,15,07,19.70
2013,06,16,15,08,19.70
2013,06,16,15,09,19.80
2013,06,16,15,10,20.00
2013,06,16,15,11,20.00
2013,06,16,15,12,20.10
2013,06,16,15,13,20.00
2013,06,16,15,14,20.00
2013,06,16,15,15,19.80
2013,06,16,15,16,19.70
2013,06,16,15,17,19.70
2013,06,16,15,18,19.60
2013,06,16,15,19,19.50
2013,06,16,15,20,19.40
2013,06,16,15,21,19.30
2013,06,16,15,22,19.20
2013,06,16,15,23,19.10
2013,06,16,15,24,19.10
2013,06,16,15,25,19.10
2013,06,16,15,26,19.10
2013,06,16,15,27,19.20
2013,06,16,15,28,19.20
2013,06,16,15,29,19.20
2013,06,16,15,30,19.20
2013,06,16,15,31,19.20
2013,06,16,15,32,19.30
2013,06,16,15,33,19.30
2013,06,16,15,34,19.30
2013,06,16,15,35,19.20
2013,06,16,15,36,19.20
2013,06,16,15,37,19.20
2013,06,16,15,38,19.10
2013,06,16,15,39,19.10
2013,06,16,15,40,19.10
2013,06,16,15,41,19.10
2013,06,16,15,42,19.00
2013,06,16,15,43,19.00
2013,06,16,15,44,19.00
2013,06,16,15,45,19.00
2013,06,16,15,46,19.00
2013,06,16,15,47,19.10
2013,06,16,15,48,19.10
2013,06,16,15,49,19.10
2013,06,16,15,50,19.10
2013,06,16,15,51,19.20
2013,06,16,15,52,19.20
2013,06,16,15,53,19.20
2013,06,16,15,54,19.30
2013,06,16,15,55,19.30
2013,06,16,15,56,19.40
2013,06,16,15,57,19.40
2013,06,16,15,58,19.50
2013,06,16,15,59,19.60
2013,06,16,16,00,19.60
2013,06,16,16,01,19.70
2013,06,16,16,02,19.70
2013,06,16,16,03,19.80
2013,06,16,16,04,19.90
2013,06,16,16,05,20.00
2013,06,16,16,06,20.10
2013,06,16,16,07,20.20
2013,06,16,16,08,20.30
2013,06,16,16,09,20.50
2013,06,16,16,10,20.60
2013,06,16,16,11,20.70
2013,06,16,16,12,20.80
2013,06,16,16,13,20.90
2013,06,16,16,14,20.90
2013,06,16,16,15,20.90
2013,06,16,16,16,20.90
2013,06,16,16,17,20.90
2013,06,16,16,18,21.00
2013,06,16,16,19,21.10
2013,06,16,16,20,21.10
2013,06,16,16,21,21.20
2013,06,16,16,22,21.30
2013,06,16,16,23,21.40
2013,06,16,16,24,21.50
2013,06,16,16,25,21.70
2013,06,16,16,26,21.60
2013,06,16,16,27,21.60
2013,06,16,16,28,21.60
2013,06,16,16,29,21.60
2013,06,16,16,30,21.60
2013,06,16,16,31,21.60
2013,06,16,16,32,21.60
2013,06,16,16,33,21.60
2013,06,16,16,34,21.50
2013,06,16,16,35,21.60
2013,06,16,16,36,21.60
2013,06,16,16,37,21.70
2013,06,16,16,38,21.80
2013,06,16,16,39,21.80
2013,06,16,16,40,21.80
2013,06,16,16,41,21.80
2013,06,16,16,42,21.80
2013,06,16,16,43,21.80
2013,06,16,16,44,21.80
2013,06,16,16,45,21.80
2013,06,16,16,46,21.80
2013,06,16,16,47,21.90
2013,06,16,16,48,22.00
2013,06,16,16,49,22.00
2013,06,16,16,50,22.00
2013,06,16,16,51,22.00
2013,06,16,16,52,22.00
2013,06,16,16,53,22.00
2013,06,16,16,54,22.10
2013,06,16,16,55,22.10
2013,06,16,16,56,22.10
2013,06,16,16,57,22.20
2013,06,16,16,58,22.20
2013,06,16,16,59,22.30
2013,06,16,17,00,22.30
2013,06,16,17,01,22.30
2013,06,16,17,02,22.30
2013,06,16,17,03,22.30
2013,06,16,17,04,22.30
2013,06,16,17,05,22.30
2013,06,16,17,06,22.20
2013,06,16,17,07,22.20
2013,06,16,17,08,22.20
2013,06,16,17,09,22.30
2013,06,16,17,10,22.20
2013,06,16,17,11,22.20
2013,06,16,17,12,22.20
2013,06,16,17,13,22.20
2013,06,16,17,14,22.10
2013,06,16,17,15,22.10
2013,06,16,17,16,22.10
2013,06,16,17,17,22.00
2013,06,16,17,18,22.10
2013,06,16,17,19,22.00
2013,06,16,17,20,21.90
2013,06,16,17,21,21.80
2013,06,16,17,22,21.80